This demonstration page uses our WeatherBlox Daily Observations layout. Learn more.

Left ArrowRight Arrow

34.02893, -84.19858

Hourly Observations for November 27, 2019

Temp ( °F °C ) Dew Point ( °F °C ) Humidity (%) Winds ( mph kmh ) Pressure ( in mb ) Visibility ( mi km ) Precip ( " mm )
12:25 am 00:25 Cloudy 56 13.3 47 8.3 72 72 SSE 6 9 30.02 1017 10 16 0.00 0.00
12:36 am 00:36 Cloudy 56 13.3 47 8.3 72 72 ESE 5 7 30.01 1016 10 16 0.00 0.00
12:53 am 00:53 Cloudy 57 13.9 47 8.3 69 69 SSE 5 7 30.01 1016 10 16 0.00 0.00
1:02 am 01:02 Cloudy 57 13.9 48 8.9 72 72 SSE 7 11 30.01 1016 10 16 0.00 0.00
1:50 am 01:50 Cloudy 55 13 48 9 77 77 SE 7 11 30.00 1016 10 16 0.00 0.00
1:53 am 01:53 Cloudy 56 13.3 48 8.9 75 75 SSE 5 7 29.98 1015 10 16 0.00 0.00
2:39 am 02:39 Cloudy 56 13.3 49 9.4 77 77 SE 6 9 29.98 1015 10 16 0.00 0.00
2:53 am 02:53 Cloudy 56 13.3 49 9.4 77 77 SE 3 6 29.96 1015 10 16 0.00 0.00
3:53 am 03:53 Cloudy 57 13.9 52 11.1 83 83 S 12 19 29.94 1014 10 16 0.00 0.00
4:53 am 04:53 Cloudy 57 13.9 54 12.2 90 90 S 8 13 29.95 1014 10 16 0.00 0.00
5:40 am 05:40 Cloudy with Light Rain 58 14.4 55 12.8 90 90 SSE 7 11 29.94 1014 10 16 0.00 0.00
5:53 am 05:53 Cloudy with Light Rain 59 15 56 13.3 90 90 S 7 11 29.94 1014 10 16 0.00 0.00
6:53 am 06:53 Cloudy with Light Rain 61 16.1 59 15 93 93 S 10 17 29.96 1014 9 14 0.00 0.00
7:13 am 07:13 Cloudy with Light Rain 60 15.6 59 15 96 96 S 8 13 29.96 1015 6 10 0.03 0.76
7:53 am 07:53 Cloudy with Rain 61 16.1 60 15.6 97 97 SSW 8 13 29.98 1015 3 5 0.12 3.05
8:53 am 08:53 Cloudy with Light Rain 63 17.2 62 16.7 97 97 SSW 6 9 29.99 1016 6 10 0.06 1.52
9:00 am 09:00 Mostly Cloudy 63 17.2 63 17.2 100 100 SSW 9 15 29.99 1016 10 16 0.00 0.00
10:53 am 10:53 Cloudy with Light Rain 65 18.3 64 17.8 97 97 SW 12 19 30.03 1017 9 14 0.01 0.25
11:07 am 11:07 Cloudy 67 19.4 66 18.9 97 97 SW 9 15 30.03 1017 10 16 0.00 0.00
11:24 am 11:24 Cloudy 66 18.9 64 17.8 93 93 WNW 12 19 30.04 1017 10 16 0.00 0.00
11:31 am 11:31 Cloudy 66 18.9 63 17.2 90 90 W 13 20 30.04 1017 10 16 0.00 0.00
11:53 am 11:53 Cloudy 68 20 64 17.8 87 87 W 12 19 30.04 1017 10 16 0.00 0.00
12:00 pm 12:00 Mostly Cloudy 68 20 63 17.2 84 84 W 9 15 30.03 1017 10 16 0.00 0.00
12:53 pm 12:53 Sunny 71 21.7 55 12.8 57 57 W 10 17 30.01 1016 10 16 0.00 0.00
1:53 pm 13:53 Sunny 73 22.8 51 10.6 46 46 W 13 20 30.02 1017 10 16 0.00 0.00
2:53 pm 14:53 Sunny 73 22.8 44 6.7 35 35 WSW 13 20 30.01 1016 10 16 0.00 0.00
3:53 pm 15:53 Sunny 72 22.2 43 6.1 35 35 W 9 15 30.02 1017 10 16 0.00 0.00
4:53 pm 16:53 Sunny 69 20.6 27 -2.8 21 21 W 14 22 30.06 1018 10 16 0.00 0.00
5:53 pm 17:53 Clear 64 17.8 26 -3.3 24 24 W 14 22 30.08 1019 10 16 0.00 0.00
6:53 pm 18:53 Clear 61 16.1 22 -5.6 22 22 WNW 10 17 30.11 1020 10 16 0.00 0.00
7:53 pm 19:53 Clear 58 14.4 27 -2.8 31 31 WNW 10 17 30.14 1021 10 16 0.00 0.00
8:53 pm 20:53 Clear 55 12.8 29 -1.7 37 37 NW 13 20 30.15 1021 10 16 0.00 0.00
9:53 pm 21:53 Clear 53 11.7 29 -1.7 40 40 NW 10 17 30.17 1022 10 16 0.00 0.00
10:53 pm 22:53 Clear 52 11.1 29 -1.7 41 41 NW 12 19 30.19 1022 10 16 0.00 0.00
11:53 pm 23:53 Clear 50 10 28 -2.2 43 43 NW 10 17 30.20 1023 10 16 0.00 0.00

Powered by AerisWeather